Pittsfield, IL

4:40 AM CST on December 05, 2016 (GMT -0600)
Pittsfield Penstone Municipal

Weather History for KPPQ - May, 2013

Change the Weather History Date:

Thursday, May 9, 2013

  Actual Average (KUIN) Record (KUIN)
Temperature  
Mean Temperature 64 °F 61 °F  
Max Temperature 69 °F 71 °F 90 °F (1963)
Min Temperature 60 °F 51 °F 31 °F (1960)
Degree Days  
Heating Degree Days 0 6  
Month to date heating degree days 59  
Since 1 July heating degree days 5489  
Cooling Degree Days 0 1  
Month to date cooling degree days 9  
Year to date cooling degree days 27  
Growing Degree Days 14 (Base 50)    
Moisture  
Dew Point 60 °F    
Average Humidity 87    
Maximum Humidity 94    
Minimum Humidity 74    
Precipitation  
Precipitation 0.80 in 0.14 in 1.58 in (1935)
Month to date precipitation 1.21  
Year to date precipitation 10.76  
Sea Level Pressure  
Sea Level Pressure 29.91 in    
Wind  
Wind Speed 6 mph (South)    
Max Wind Speed 17 mph    
Max Gust Speed 23 mph    
Visibility 9 miles    
Events Rain , Thunderstorm    
T = Trace of Precipitation, MM = Missing Value Source: NWS Daily Summary

Daily Weather History Graph

Daily Weather History Graph

Search for Another Location

Airport or City:

Trip Planner

Search our weather history database for the weather conditions in past years. The results will help you decide how hot, cold, wet, or windy it might be!

Date:

Astronomy

May. 09, 2013 Rise Set
Actual Time 5:54 AM CDT 8:05 PM CDT
Civil Twilight 5:24 AM CDT 8:35 PM CDT
Nautical Twilight 4:47 AM CDT 9:12 PM CDT
Astronomical Twilight 4:07 AM CDT 9:52 PM CDT
Moon 5:38 AM CDT (5/9) 8:00 PM CDT (5/9)
Length of Visible Light 15h 10m
Length of Day
14h 10m
Waning Crescent, 0% of the Moon is Illuminated
May 9
Waning Crescent
May 9
New
May 17
First Quarter
May 24
Full
May 31
Last Quarter

Hourly Weather History & Observations

Time (CDT) Temp. Dew Point Humidity Pressure Visibility Wind Dir Wind Speed Gust Speed Precip Events Conditions
12:15 AM 60.1 °F 57.6 °F 91% 29.99 in 10.0 mi SSE 5.8 mph - N/A   Overcast
12:35 AM 61.2 °F 57.4 °F 87% 29.99 in 10.0 mi SE 3.5 mph - N/A   Mostly Cloudy
1:15 AM 61.2 °F 57.4 °F 87% 29.97 in 10.0 mi SSE 3.5 mph - N/A   Overcast
1:55 AM 62.1 °F 57.9 °F 86% 29.96 in 10.0 mi SE 4.6 mph - N/A   Overcast
2:35 AM 62.8 °F 58.1 °F 85% 29.96 in 10.0 mi SSE 4.6 mph - N/A   Overcast
2:55 AM 62.6 °F 57.9 °F 85% 29.96 in 10.0 mi SSE 5.8 mph - N/A   Mostly Cloudy
3:15 AM 62.8 °F 57.6 °F 83% 29.95 in 10.0 mi SSE 4.6 mph - N/A   Mostly Cloudy
3:35 AM 63.1 °F 57.6 °F 82% 29.94 in 10.0 mi SE 8.1 mph - N/A Thunderstorm Overcast
4:35 AM 62.8 °F 57.4 °F 82% 29.93 in 10.0 mi ESE 4.6 mph - N/A   Mostly Cloudy
4:55 AM 63.3 °F 57.4 °F 81% 29.93 in 10.0 mi NE 3.5 mph - N/A Thunderstorm Overcast
5:15 AM 63.9 °F 57.4 °F 79% 29.94 in 10.0 mi Calm Calm - N/A Rain Rain
5:35 AM 62.1 °F 58.1 °F 87% 29.95 in 10.0 mi WNW 9.2 mph - 0.01 in Rain , Thunderstorm Light Thunderstorms and Rain
5:55 AM 62.2 °F 58.1 °F 86% 29.96 in 7.0 mi NW 9.2 mph - 0.04 in Rain , Thunderstorm Heavy Thunderstorms and Rain
6:55 AM 61.2 °F 58.5 °F 91% 29.95 in 10.0 mi ENE 4.6 mph - 0.01 in Thunderstorm Overcast
7:15 AM 61.3 °F 58.6 °F 91% 29.95 in 10.0 mi East 4.6 mph - N/A   Overcast
7:55 AM 63.3 °F 59.9 °F 89% 29.94 in 10.0 mi East 5.8 mph - N/A Thunderstorm Scattered Clouds
8:15 AM 63.7 °F 60.3 °F 89% 29.93 in 10.0 mi East 6.9 mph - N/A   Scattered Clouds
8:35 AM 65.1 °F 61.3 °F 88% 29.93 in 10.0 mi East 8.1 mph - N/A   Scattered Clouds
9:15 AM 64.9 °F 61.2 °F 88% 29.93 in 10.0 mi ESE 6.9 mph - N/A Thunderstorm Mostly Cloudy
9:35 AM 65.7 °F 62.2 °F 89% 29.93 in 10.0 mi ESE 6.9 mph - N/A   Mostly Cloudy
9:55 AM 66.2 °F 61.7 °F 85% 29.92 in 10.0 mi SE 8.1 mph - N/A   Mostly Cloudy
10:35 AM 64.4 °F 61.2 °F 89% 29.93 in 1.5 mi SSE 13.8 mph 18.4 mph 0.35 in Rain Heavy Rain
10:55 AM 63.7 °F 60.8 °F 90% 29.93 in 7.0 mi South 6.9 mph - 0.40 in Rain , Thunderstorm Thunderstorms and Rain
11:15 AM 63.7 °F 60.8 °F 90% 29.93 in 10.0 mi South 5.8 mph - N/A Rain , Thunderstorm Rain
11:35 AM 63.9 °F 61.0 °F 90% 29.93 in 7.0 mi SSE 5.8 mph - 0.01 in Rain Light Rain
11:55 AM 64.4 °F 62.6 °F 94% 29.93 in 7.0 mi SSE 4.6 mph - N/A Rain Rain
12:15 PM 64.2 °F 61.5 °F 91% 29.93 in 7.0 mi SE 6.9 mph - N/A Rain Rain
12:35 PM 64.2 °F 61.5 °F 91% 29.93 in 7.0 mi South 6.9 mph - 0.01 in   Drizzle
12:55 PM 64.4 °F 61.9 °F 92% 29.92 in 5.0 mi SE 5.8 mph - 0.03 in Rain Light Rain
1:15 PM 64.2 °F 61.7 °F 91% 29.91 in 2.5 mi SE 8.1 mph - 0.08 in Rain Rain
1:35 PM 64.4 °F 61.7 °F 91% 29.90 in 7.0 mi SSE 6.9 mph - 0.08 in Rain Light Rain
1:55 PM 64.4 °F 61.7 °F 91% 29.90 in 10.0 mi SE 5.8 mph - 0.08 in Rain Light Rain
2:15 PM 64.8 °F 61.7 °F 90% 29.89 in 10.0 mi SSE 4.6 mph - N/A Rain Light Rain
2:35 PM 65.3 °F 62.2 °F 90% 29.89 in 10.0 mi SE 5.8 mph - N/A Rain Light Rain
2:55 PM 65.3 °F 62.2 °F 90% 29.89 in 7.0 mi South 4.6 mph - 0.01 in Rain Rain
3:15 PM 65.3 °F 62.4 °F 90% 29.88 in 5.0 mi South 4.6 mph - N/A   Light Drizzle
3:35 PM 66.0 °F 62.4 °F 88% 29.86 in 7.0 mi SSW 4.6 mph - N/A Rain Light Rain
3:55 PM 66.6 °F 61.9 °F 85% 29.87 in 10.0 mi SW 4.6 mph - N/A Rain Light Rain
4:15 PM 67.3 °F 61.9 °F 83% 29.86 in 10.0 mi SSW 3.5 mph - N/A   Mostly Cloudy
4:35 PM 68.4 °F 61.3 °F 78% 29.85 in 10.0 mi SW 5.8 mph - N/A   Scattered Clouds
4:55 PM 69.1 °F 62.1 °F 78% 29.86 in 10.0 mi SW 8.1 mph - N/A   Scattered Clouds
5:15 PM 69.3 °F 61.9 °F 77% 29.85 in 10.0 mi SW 8.1 mph - N/A   Scattered Clouds
5:35 PM 69.8 °F 61.2 °F 74% 29.85 in 10.0 mi SSW 8.1 mph - N/A Thunderstorm Scattered Clouds
5:55 PM 69.8 °F 61.7 °F 75% 29.85 in 10.0 mi South 4.6 mph - N/A   Scattered Clouds
6:15 PM 69.1 °F 61.0 °F 75% 29.85 in 10.0 mi SSW 6.9 mph - N/A   Scattered Clouds
6:35 PM 68.9 °F 61.5 °F 77% 29.86 in 10.0 mi SW 5.8 mph - N/A   Mostly Cloudy
6:55 PM 61.9 °F 57.7 °F 86% 29.89 in 5.0 mi WSW 9.2 mph 18.4 mph 0.10 in Rain , Thunderstorm Light Thunderstorms and Rain
7:15 PM 61.2 °F 57.6 °F 88% 29.89 in 7.0 mi WSW 4.6 mph - 0.03 in Rain , Thunderstorm Rain
7:35 PM 61.0 °F 57.7 °F 89% 29.89 in 7.0 mi South 8.1 mph - 0.08 in Rain , Thunderstorm Rain
7:55 PM 60.8 °F 58.1 °F 91% 29.88 in 10.0 mi SSW 5.8 mph - 0.09 in   Mostly Cloudy
8:15 PM 61.2 °F 58.5 °F 91% 29.88 in 10.0 mi South 4.6 mph - N/A   Overcast
8:35 PM 61.3 °F 59.0 °F 92% 29.88 in 10.0 mi SSW 6.9 mph - N/A   Overcast
8:55 PM 62.4 °F 59.5 °F 90% 29.88 in 10.0 mi SW 6.9 mph - N/A   Overcast
9:15 PM 64.2 °F 60.4 °F 87% 29.90 in 10.0 mi SSW 17.3 mph 23.0 mph N/A   Overcast
9:35 PM 63.5 °F 59.0 °F 85% 29.88 in 7.0 mi SW 6.9 mph - 0.02 in Rain Rain
9:55 PM 62.8 °F 59.0 °F 87% 29.88 in 10.0 mi SW 5.8 mph - 0.03 in   Scattered Clouds
10:15 PM 62.1 °F 58.8 °F 89% 29.88 in 10.0 mi SW 6.9 mph - N/A   Clear
10:35 PM 62.6 °F 59.0 °F 88% 29.88 in 10.0 mi SW 6.9 mph - N/A   Clear
10:55 PM 62.2 °F 58.6 °F 88% 29.88 in 10.0 mi SW 8.1 mph - N/A   Clear
11:15 PM 62.6 °F 58.8 °F 87% 29.88 in 10.0 mi WSW 8.1 mph - N/A   Clear
11:35 PM 61.9 °F 58.5 °F 89% 29.88 in 10.0 mi SW 5.8 mph - N/A   Clear
11:55 PM 60.8 °F 59.0 °F 94% 29.89 in 10.0 mi SW 5.8 mph - N/A   Clear